Regional Weather Roundup
Issued by NWS Wakefield, VA

Home | Current Version | Previous Version | Text Only | Print | Product List | Glossary Off
Versions: 1 2 3 4 5 6 7 8 9 10 11 12 13 14 15 16 17 18 19 20 21 22 23 24 25 26 27 28 29 30 31 32 33 34 35 36 37 38 39 40 41 42 43 44 45 46 47 48 49 50

000
ASUS41 KAKQ 200514
RWRAKQ

REGIONAL WEATHER ROUNDUP
NATIONAL WEATHER SERVICE WAKEFIELD VA
100 AM EDT MON APR 20 2015

Note: "fair" indicates few or no clouds below 12,000 feet with no
significant weather and/or obstructions to visibility. * = Denotes
station may not report precipitation (e.g., rain,snow,etc.),
thunder or fog.

VAZ042-051-052>054-056-200600-
NORTHERN VIRGINIA

CITY           SKY/WX    TMP DP  RH WIND       PRES   REMARKS
WASH NATIONAL  LGT RAIN  57  52  83 E14G29    29.82F
DULLES         RAIN      53  51  93 E15G26    29.78F FOG
FORT BELVOIR   LGT RAIN  55  54  94 VRB6      29.79F FOG
QUANTICO       RAIN      58  55  90 E15       29.78F FOG
FREDERICKSBRG* HVY RAIN  59  59 100 E7        29.76F
STAFFORD*      HVY RAIN  57  32  38 E10G20    29.81F
WARRENTON      RAIN      56  56  99 E13G20    29.74F
CULPEPER*      HVY RAIN  57  55  94 E3        29.74F
MANASSAS*      CLOUDY    55  55 100 E16       29.78F
LEESBURG*      HVY RAIN  52  52 100 E14       29.81F
WINCHESTER     RAIN      52  46  82 E6        29.77F
FRONT ROYAL*   CLOUDY    48  48 100 CALM      29.76F
LURAY*         RAIN      54  54 100 N7        29.74F
$$

VAZ048-049-060>072-079>083-200600-
CENTRAL AND SOUTH CENTRAL VIRGINIA

CITY           SKY/WX    TMP DP  RH WIND       PRES   REMARKS
RICHMOND       LGT RAIN  67  63  87 SE15      29.75F FOG
CHESTERFIELD*  NOT AVBL
PETERSBURG*    RAIN      67  65  94 SE9G17    29.76F
HANOVER        HVY RAIN  64  64 100 SE8G18    29.76F FOG
TAPPAHANNOCK*  LGT RAIN  64  61  89 SE17G25   29.80F
QUINTON*       CLOUDY    64  63  97 SE8G18    29.77F
CHARLOTTSVILLE RAIN      53  52  96 N8        29.73F FOG
GORDONSVILLE*  CLOUDY    57  57  97 S7G18     29.72F
ORANGE*        HVY RAIN  59  57  94 E8        29.74F
LOUISA*        RAIN      61  59  94 E9        29.71F
BUMPASS*       CLOUDY    60  59  97 E9        29.73F
FARMVILLE*     LGT RAIN  66  66 100 S8        29.69F
CREWE*         CLOUDY    66  65  94 S15G23    29.72F
FORT PICKETT*  CLOUDY    65  65  97 S16G22    29.73F
CHASE CITY*    CLOUDY    68  68 100 S9        29.73S
CLARKSVILLE*   CLOUDY    64  64 100 S8        29.73S
SOUTH HILL*    CLOUDY    66  65  97 S9G17     29.80F
LAWRENCEVILLE* CLOUDY    66  66  99 S9        29.76F
EMPORIA*       DRIZZLE   64  64 100 SE7       29.79F
$$

VAZ088>098-200600-
SOUTHEAST VIRGINIA

CITY           SKY/WX    TMP DP  RH WIND       PRES   REMARKS
NORFOLK        LGT RAIN  66  63  90 SE15G28   29.83F
VIRGINIA BEACH LGT RAIN  66  62  87 SE20G28   29.84F FOG
NORFOLK NAVAL  HVY RAIN  70  64  81 SE17G25   29.83F
WEST POINT*    CLOUDY    66  63  89 SE17G24   29.81F
SALUDA*        CLOUDY    63  62  95 SE17G25   29.82F
NEWPORT NEWS   LGT RAIN  68  63  84 SE13      29.82F
LANGLEY AFB    LGT RAIN  64  63  94 SE14G20   29.81F FOG
FORT EUSTIS    DRIZZLE   64 N/A N/A SE17G24   29.78F
WILLIAMSBURG*    N/A    N/A N/A N/A MISG      29.79F
HR EXEC AP*    CLOUDY    68  64  88 SE15G21   29.83F
FRANKLIN*      DRIZZLE  N/A N/A N/A SE13G18   29.80F
WAKEFIELD      LGT RAIN  67  65  93 VRB5      29.79F
$$

VAZ020-022-025-037-045-200600-
WEST CENTRAL AND SOUTHWEST VIRGINIA

CITY           SKY/WX    TMP DP  RH WIND       PRES   REMARKS
STAUNTON*      RAIN      55  53  93 N8        29.73F
WAYNESBORO*    CLOUDY    53  53  99 W7        29.71F
HOT SPRINGS VA RAIN      49  49 100 E5        29.74R VSB 1/4
LYNCHBURG      RAIN      64  63  96 S18G28    29.68F FOG
DANVILLE       CLOUDY    66  63  90 S10G20    29.72S
SOUTH BOSTON*  CLOUDY    67  64  91 S9        29.72S
MARTINSVILLE   LGT RAIN  64  64 100 SW8       29.74R
ROANOKE        CLOUDY    57  57 100 CALM      29.72F
BLACKSBURG     CLOUDY   N/A N/A N/A CALM      29.75R
DUBLIN*        CLOUDY    56  56 100 CALM      29.74R
MARION*        CLOUDY    56  54  91 W5        29.76F
HILLSVILLE*    CLOUDY    60  59  97 S8        29.73S
RICHLANDS*     MOCLDY    55  50  83 SW13      29.72S
WISE*          DRIZZLE   55  55 100 SW7       29.72R
ABINGDON*      CLOUDY    57  56  95 W3        29.74R
$$

MDZ021>025-VAZ099-100-200600-
SOUTHERN MARYLAND AND THE DELMARVA PENINSULA

CITY           SKY/WX    TMP DP  RH WIND       PRES   REMARKS
PATUXENT RIVER HVY RAIN  57 N/A N/A E24G30    29.82F
BAY BRIDGE APT DRIZZLE   54  50  87 E23G31    29.87F
LEONARDTOWN    CLOUDY    55  54  94 E12G23    29.84F
DOVER          CLOUDY    53  53  98 E26G33    29.90F
GEORGETOWN     CLOUDY    56  51  84 E20G28    29.93F
EASTON         LGT RAIN  55  54  97 SE10G21   29.92F
CAMBRIDGE      CLOUDY    57  54  88 E17       29.87F
SALISBURY      LGT RAIN  59  56  89 E16       29.89F
OCEAN CITY     CLOUDY    53  51  93 E13G26    29.91F
WALLOPS ISLAND LGT RAIN  60  58  92 E22       29.88F
ACCOMACK*      RAIN      61  57  88 SE18G28   29.86F
$$

NCZ012>017-030>032-200600-
NORTH CENTRAL AND EASTERN NORTH CAROLINA

CITY           SKY/WX    TMP DP  RH WIND       PRES   REMARKS
ROANOKE RAPIDS RAIN      66  64  94 SE8       29.76F
RALEIGH        CLOUDY    67  64  90 S9G18     29.76S
ELIZABETH CITY RAIN      68  65  90 S10G21    29.85F
AHOSKIE*       LGT RAIN  67  65  96 SE9       29.78F
EDENTON*       RAIN      67  65  93 SE16G23   29.82F
CURRITUCK*     RAIN      67  65  93 SE9       29.86F
KILL DEVIL HLS CLOUDY    66  64  93 SE14G22   29.86F
MANTEO         CLOUDY    67  64  88 S17G25    29.88F
CAPE HATTERAS  LGT RAIN  67  65  93 SE20      29.88F
TARBORO*       CLOUDY    68  66  93 SE9       29.78F
GOLDSBORO      LGT RAIN  69  68  96 SE9       29.74F
WASHINGTON     HVY RAIN  68  67  95 S6        29.82F
GREENVILLE     LGT RAIN  68  68 100 S12G20    29.82F
NEW BERN       LGT RAIN  70  68  93 S13G22    29.83F
WILMINGTON     CLOUDY    71  69  93 S13       29.81F
$$

VAZ048-200600-
ELSEWHERE

CITY           SKY/WX    TMP DP  RH WIND       PRES   REMARKS
HARRISBURG PA  CLOUDY    50  44  80 E17G24    29.89F
BALTIMORE      LGT RAIN  52  50  93 E22G29    29.86F
ANNAPOLIS      LGT RAIN  54  50  86 E20G28    29.86F
ANDREWS AFB    LGT RAIN  54  54 100 E14G21    29.83F
PHILADELPHIA   CLOUDY    50  44  80 E15G24    30.01F
HENDERSON NC   CLOUDY    66  63  91 S9G16     29.74S
GREENSBORO     CLOUDY    64  62  93 S17G23    29.73R
ROCKY MOUNT    HVY RAIN  68 N/A N/A SE8       29.76F VSB 1
$$

VAZ100-200600-
MARINE

STATION/POSITION TIME  TEMP    WIND        PRES    WAVE   SWELL
                       AIR SEA DIR/SP/G            HT/PER HT/PER
                 (UTC) (F)     (DEG/KT/KT) (MB)    (FT/S) (FT/S)
BRANDYWINE LGT   0400   51 49  100/ 24/ 28 1015.1F
CAPE MAY NJ      0400   53 54   80/ 11/ 20 1015.5F
LEWES DE         0400   51 52  100/ 18/ 25 1014.9F
15NM E FENWICK I 0450   53 47              1013.5F   6/ 7
OCEAN-CITY-INLET 0400   53 50  110/ 13/ 21 1014.1F
WACHAPREAGUE VA  0400   58 60  110/ 16/ 18 1012.7F
THOMAS POINT MD  0500   54 54  100/ 26/ 29 1010.9F
GOOSES REEF MD   0500   56 52  120/ 21/ 27   N/A     2/ 3
COVE POINT MD    0400   56     120/ 24/ 33 1011.1F
SOLOMONS ISLAND  0400      56                N/A
BISHOPS HEAD MD  0400   59 61   90/ 17/ 25 1011.4F
PINEY POINT MD   0400          120/ 23/ 25   N/A
CAMBRIDGE MD     0400   56 60   90/ 16/ 20 1012.4F
LEWISETTA VA     0400   60 61              1010.7F
RAPPAHANNOCK LGT 0400          120/ 26/ 31 1011.3F
STINGRAY PT      0500   60 57  150/ 17/ 21 1011.4F   3/ 3
YORK RVR RNG VA  0400   58     150/ 24/ 27 1010.2F
YORKTOWN VA      0400   63 59  140/ 15/ 19 1010.0F
DOMINION TERM VA 0400   64     150/ 20/ 25 1010.3F
KIPTOPEKE VA     0400      62  140/ 20/ 26   N/A
CHES BAY BRIDGE  0400   60 53  120/ 13/ 19 1010.9F
CAPE HENRY VA    0400   58     140/ 16/ 23 1010.3F
CHESAPEAKE LGHT  0400   57     140/ 27/ 28 1011.6F
WILLOUBY STN VA  0400   64     140/ 18/ 21 1011.3F
S CRANEY ISL VA  0400          150/ 14/ 17 1010.7F
CAPE HENRY BUOY  0428      49                N/A     5/ 8
1ST LANDING BUOY 0500   59     150/ 21/ 25 1010.0F   2/ 3
OFFSHORE WE BUOY 0411      49                N/A     7/ 8   5/ 8
64NM E OF VA BCH 0450   65 59  140/ 17/ 23 1012.1F   8/ 8   3/15
DUCK PIER NC     0400   60 57  150/ 16/ 18 1011.0F
44056 DUCK FRF   0411      57                N/A     6/ 8   2/11
OREGON INLET NC  0400   64 60  140/ 11/ 16 1012.4F
HATTERAS NC      0400   71 67  150/ 18/ 23 1012.0F
DIAMOND SHLS NC  0450   72 71  150/ 23/ 29 1011.7F   8/ 7   2/11
CAPE LOOKOUT NC  0500   69     150/ 20/ 22 1010.4F
$$


USA.gov is the U.S. government's official web portal to all federal, state and local government web resources and services.